Tracking 29892 objects as of 21-Nov-2024
HD Live streaming from Space Station
objects crossing your sky now

CZ-3B R/B

Track CZ-3B R/B now!
10-day predictions


NORAD ID: 44205
Int'l Code: 2019-023B
Perigee: 176.8 km
Apogee: 17,318.4 km
Inclination: 28.3 °
Period: 308.3 minutes
Semi major axis: 15118 km
RCS: Unknown
Launch date: April 20, 2019
Source: People's Republic of China (PRC)
Launch site: Xichang Space Center, China (XSC)

Note: This is a ROCKET BODY
Your satellite tracking list
Your tracking list is empty




NASA's NSSDC Master Catalog

Two Line Element Set (TLE):
1 44205U 19023B   24325.62820912  .00202608  10316-7  19503-2 0  9992
2 44205  28.2784  26.6171 5669058 204.0683 113.2624  4.67021511 63244
Source of the keplerian elements: AFSPC